TimeMDT,TemperatureF,Dew PointF,Humidity,Sea Level PressureIn,VisibilityMPH,Wind Direction,Wind SpeedMPH,Gust SpeedMPH,PrecipitationIn,Events,Conditions,WindDirDegrees,DateUTC
12:53 AM,77.0,48.9,37,29.97,10.0,Calm,Calm,-,N/A,,Clear,0,2013-07-03 06:53:00
1:53 AM,73.0,51.1,46,29.95,10.0,Calm,Calm,-,N/A,,Clear,0,2013-07-03 07:53:00
2:53 AM,60.1,54.0,80,29.95,10.0,NW,6.9,-,N/A,,Clear,320,2013-07-03 08:53:00
3:53 AM,61.0,55.0,81,29.95,10.0,Calm,Calm,-,N/A,,Clear,0,2013-07-03 09:53:00
4:53 AM,61.0,54.0,78,29.96,10.0,North,4.6,-,N/A,,Clear,360,2013-07-03 10:53:00
5:53 AM,63.0,53.1,70,29.96,10.0,Calm,Calm,-,N/A,,Clear,0,2013-07-03 11:53:00
6:53 AM,60.1,54.0,80,30.01,10.0,Calm,Calm,-,N/A,,Clear,0,2013-07-03 12:53:00
7:53 AM,70.0,53.1,55,30.00,10.0,South,5.8,-,N/A,,Scattered Clouds,170,2013-07-03 13:53:00
8:53 AM,75.0,53.1,46,30.00,10.0,SSW,10.4,-,N/A,,Clear,210,2013-07-03 14:53:00
9:53 AM,78.1,54.0,43,29.99,10.0,SSW,11.5,-,N/A,,Scattered Clouds,210,2013-07-03 15:53:00
10:53 AM,81.0,54.0,39,29.97,10.0,SW,10.4,-,N/A,,Clear,220,2013-07-03 16:53:00
11:53 AM,84.0,53.1,34,29.96,10.0,South,4.6,-,N/A,,Clear,180,2013-07-03 17:53:00
12:53 PM,84.0,55.9,38,29.94,10.0,WNW,4.6,-,N/A,,Scattered Clouds,300,2013-07-03 18:53:00
1:53 PM,86.0,55.9,36,29.92,10.0,West,3.5,-,N/A,,Scattered Clouds,270,2013-07-03 19:53:00
2:53 PM,90.0,46.9,23,29.92,10.0,Calm,Calm,-,N/A,,Scattered Clouds,0,2013-07-03 20:53:00
3:53 PM,88.0,55.0,32,29.90,9.0,Calm,Calm,-,N/A,,Scattered Clouds,0,2013-07-03 21:53:00
4:53 PM,91.9,44.1,19,29.86,10.0,Calm,Calm,-,N/A,,Mostly Cloudy,0,2013-07-03 22:53:00
5:53 PM,91.9,50.0,24,29.83,10.0,Calm,Calm,-,N/A,,Scattered Clouds,0,2013-07-03 23:53:00
6:53 PM,87.8,53.6,31,29.84,10.0,WSW,6.9,-,N/A,,Scattered Clouds,240,2013-07-04 00:53:00
7:53 PM,77.0,60.1,56,29.87,10.0,North,10.4,-,N/A,,Mostly Cloudy,350,2013-07-04 01:53:00
8:53 PM,73.9,57.0,55,29.88,10.0,NNW,9.2,-,N/A,,Mostly Cloudy,330,2013-07-04 02:53:00
9:53 PM,72.0,57.9,61,29.87,10.0,West,9.2,-,0.00,Rain,Light Rain,280,2013-07-04 03:53:00
10:53 PM,73.0,55.9,55,29.86,10.0,West,9.2,-,0.00,,Overcast,280,2013-07-04 04:53:00
11:53 PM,73.9,54.0,50,29.86,10.0,NW,9.2,-,N/A,,Scattered Clouds,310,2013-07-04 05:53:00